SCP
0 0 0 0 0 0 0 0 0 0 0 0 0 0 0 0 0 0 0 0 0 0 0 0 0 0 0 0 0 0 0 0
0 0 0 0 0 0 0 0 0 0 0 0 0 0 0 0 0 0 0 0 0 0 0 0 0 0 0 0 0 0 0 0
0 0 0 0 0 0 0 0 0 0 0 0 0 0 0 0 0 0 0 0 0 0 0 0 0 0 0 0 0 0 0 0
0 0 0 0 0 0 0 0 0 0 0 0 0 0 0 0 0 0 0 0 0 0 0 0 0 0 0 0 0 0 0 0
0 0 0 0 0 0 0 0 0 0 0 0 0 0 0 0 0 0 0 0 0 0 0 0 0 0 0 0 0 0 0 0
0 0 0 0 0 0 0 0 0 0 0 0 0 0 0 0 0 0 0 0 0 0 0 0 0 0 0 0 0 0 0 0
0 0 0 0 0 0 0 0 0 0 0 0 0 0 0 0 0 0 0 0 0 0 0 0 0 0 0 0 0 0 0 0
0 0 0 0 0 0 0 0 0 0 0 0 0 0 0 0 0 0 0 0 0 0 0 0 0 0 0 0 0 0 0 0
0 0 0 0 0 0 0 0 0 0 0 0 0 0 0 0 0 0 0 0 0 0 0 0 0 0 0 0 0 0 0 0
0 0 0 0 0 0 0 0 0 0 0 0 0 0 0 0 0 0 0 0 0 0 0 0 0 0 0 0 0 0 0 0
0 0 0 0 0 0 0 0 0 0 0 0 0 0 0 0 0 0 0 0 0 0 0 0 0 0 0 0 0 0 0 0
0 0 0 0 0 0 0 0 0 0 0 0 0 0 0 0 0 0 0 0 0 0 0 0 0 0 0 0 0 0 0 0
0 0 0 0 0 0 0 0 0 0 0 0 0 0 0 0 0 0 0 0 0 0 0 0 0 0 0 0 0 0 0 0
0 0 0 0 0 0 0 0 0 0 0 0 0 0 0 0 0 0 0 0 0 0 0 0 0 0 0 0 0 0 0 0
0 0 0 0 0 0 0 0 0 0 0 0 0 0 0 0 0 0 0 0 0 0 0 0 0 0 0 0 0 0 0 0
0 0 0 0 0 0 0 0 0 0 0 0 0 0 0 0 0 0 0 0 0 0 0 0 0 0 0 0 0 0 0 0
0 0 0 0 0 0 0 0 0 0 0 0 0 0 0 0 0 0 0 0 0 0 0 0 0 0 0 0 0 0 0 0
0 0 0 0 0 0 0 0 0 0 0 0 0 0 0 0 0 0 0 0 0 0 0 0 0 0 0 0 0 0 0 0
0 0 0 0 0 0 0 0 0 0 0 0 0 0 0 0 0 0 0 0 0 0 0 0 0 0 0 0 0 0 0 0
0 0 0 0 0 0 0 0 0 0 0 0 0 0 0 0 0 0 0 0 0 0 0 0 0 0 0 0 0 0 0 0
Wind_Speed_500mb
45 53 60 62 65 71 80 84 82 84 84 86 83 87 94 95 93 87 79 73 65 59 55 50 49 50 51 52 54 57 59 63
37 45 55 63 68 72 75 81 89 89 87 88 87 86 94 96 94 87 79 72 64 58 53 52 51 52 53 54 56 58 63 65
39 44 56 65 66 70 76 84 89 95 91 90 89 88 93 94 92 85 79 70 61 56 55 54 52 52 53 55 55 60 65 66
53 59 63 67 67 77 84 86 87 91 92 92 93 93 95 95 88 82 75 67 60 56 54 52 52 52 53 55 56 62 66 67
57 63 72 76 79 83 88 85 86 88 90 93 96 96 96 89 82 79 72 67 61 57 53 51 51 51 53 53 58 63 67 69
70 75 81 80 80 84 88 88 87 86 87 92 95 94 90 78 77 75 71 66 61 55 51 50 49 50 48 52 57 64 69 71
65 65 68 77 83 82 88 91 88 84 86 90 93 92 84 75 76 76 70 63 58 53 49 48 48 47 45 52 58 65 69 73
67 68 69 59 61 67 75 84 82 81 82 86 88 86 77 72 77 76 68 62 56 51 47 45 45 43 47 52 57 63 65 69
85 67 48 46 48 50 66 75 77 81 83 85 88 81 76 75 79 76 67 59 51 48 46 42 42 43 47 51 57 60 62 64
76 61 53 49 48 47 56 66 75 79 82 86 84 81 80 82 82 73 64 56 52 47 44 41 39 41 43 47 51 56 61 65
62 48 45 45 43 45 51 60 69 74 80 81 79 77 78 79 76 69 59 55 48 45 41 41 36 36 37 38 44 55 63 67
46 47 41 44 48 51 57 62 62 71 76 79 79 77 78 77 75 68 58 53 48 42 40 35 33 30 31 29 35 48 61 74
59 53 50 48 53 59 66 61 64 70 74 75 75 78 82 79 71 61 55 53 48 42 35 29 24 23 24 24 30 39 55 67
46 54 52 55 60 65 69 67 70 70 74 72 76 84 83 76 65 56 55 49 43 36 28 19 17 15 17 29 30 40 47 59
55 55 64 76 70 68 71 73 70 71 73 75 87 89 82 72 62 61 53 48 42 33 23 15 12 11 21 33 41 48 52 54
68 69 72 72 71 75 80 78 73 74 78 86 92 88 79 69 64 60 52 43 37 28 19 12 7 11 16 24 33 40 40 49
72 69 69 73 74 80 87 85 85 84 89 99 98 90 81 74 66 56 45 41 34 24 17 8 3 7 11 16 24 30 37 48
89 88 86 85 86 82 90 91 90 90 101 107 100 92 84 76 67 60 52 43 34 25 17 7 3 4 9 16 22 30 36 49
85 85 88 87 93 91 91 89 88 92 106 107 99 92 81 75 64 59 52 48 37 27 18 11 3 2 7 15 19 25 36 48
78 80 86 89 90 85 82 90 98 105 108 103 94 85 78 69 65 57 48 42 35 30 23 15 9 5 5 13 21 32 40 46
Wind_Direction_500mb
234 233 234 235 239 235 232 231 230 232 234 238 241 240 240 238 236 235 236 237 241 247 253 261 268 273 278 284 290 292 293 296
248 241 244 248 245 238 234 234 233 235 237 238 240 241 241 239 236 234 235 235 238 246 254 261 265 270 275 281 288 291 293 294
258 257 251 249 245 244 242 239 239 239 236 237 238 241 241 239 235 231 232 234 238 246 254 259 265 269 276 284 288 291 292 294
253 250 258 257 252 253 247 247 246 240 236 237 238 239 241 239 234 230 230 234 238 245 254 261 266 272 280 285 289 291 293 295
260 261 262 262 259 255 252 254 249 241 239 238 239 240 240 238 234 229 230 233 239 245 253 259 266 273 280 287 291 293 296 299
272 272 270 263 259 257 254 254 249 242 242 240 237 238 239 236 232 227 228 233 239 245 253 259 266 274 282 289 292 295 297 300
275 272 268 268 265 260 256 253 248 244 242 236 235 236 235 232 228 225 228 233 241 248 253 259 267 276 288 292 293 296 300 303
272 278 286 275 266 264 261 253 245 242 236 234 233 232 232 230 223 222 226 233 240 247 254 259 270 282 288 291 294 297 302 307
282 285 276 266 258 254 249 245 241 236 233 231 230 229 227 225 220 220 224 231 239 247 252 261 273 283 288 295 296 301 306 313
278 280 275 265 259 248 240 237 235 233 231 230 228 225 220 213 213 218 224 229 237 244 251 262 273 280 291 293 298 306 316 319
273 268 265 263 254 242 238 233 230 229 226 226 225 223 217 211 210 215 220 230 233 240 252 263 273 284 287 297 308 314 318 321
270 266 263 264 253 247 238 234 233 230 226 223 220 216 211 208 210 213 217 226 231 240 248 259 271 281 295 305 309 316 320 311
284 267 266 266 259 253 245 239 232 230 227 221 214 206 204 207 208 210 216 222 227 232 241 253 273 295 303 310 314 319 311 316
288 276 277 271 261 255 250 242 234 231 224 217 207 201 201 204 206 211 220 222 225 230 232 246 269 293 315 327 327 323 319 319
282 282 289 285 264 256 249 241 235 231 222 208 201 196 196 199 202 212 216 219 223 225 235 244 273 310 329 341 337 331 328 333
278 278 278 272 265 257 250 241 233 226 218 205 199 196 193 198 206 212 211 221 222 223 219 236 279 339 346 339 334 328 337 330
283 281 280 278 266 256 248 241 229 218 209 202 196 192 193 194 196 200 206 207 210 204 210 216 304 337 351 343 340 343 345 345
278 278 273 268 262 253 245 235 226 215 206 198 193 194 192 193 194 197 194 193 195 191 189 180 268 1 359 357 3 353 356 360
281 282 276 268 256 248 237 226 219 212 205 195 196 194 193 193 194 198 199 188 181 180 175 162 194 96 26 12 4 0 10 12
286 279 272 263 253 246 237 224 211 203 196 196 193 192 193 193 193 191 188 184 176 171 164 164 175 149 49 1 358 8 12 11
Wind_Speed_850mb
45 53 60 62 65 71 80 84 82 84 84 86 83 87 94 95 93 87 79 73 65 59 55 50 49 50 51 52 54 57 59 63
37 45 55 63 68 72 75 81 89 89 87 88 87 86 94 96 94 87 79 72 64 58 53 52 51 52 53 54 56 58 63 65
39 44 56 65 66 70 76 84 89 95 91 90 89 88 93 94 92 85 79 70 61 56 55 54 52 52 53 55 55 60 65 66
53 59 63 67 67 77 84 86 87 91 92 92 93 93 95 95 88 82 75 67 60 56 54 52 52 52 53 55 56 62 66 67
57 63 72 76 79 83 88 85 86 88 90 93 96 96 96 89 82 79 72 67 61 57 53 51 51 51 53 53 58 63 67 69
70 75 81 80 80 84 88 88 87 86 87 92 95 94 90 78 77 75 71 66 61 55 51 50 49 50 48 52 57 64 69 71
65 65 68 77 83 82 88 91 88 84 86 90 93 92 84 75 76 76 70 63 58 53 49 48 48 47 45 52 58 65 69 73
67 68 69 59 61 67 75 84 82 81 82 86 88 86 77 72 77 76 68 62 56 51 47 45 45 43 47 52 57 63 65 69
85 67 48 46 48 50 66 75 77 81 83 85 88 81 76 75 79 76 67 59 51 48 46 42 42 43 47 51 57 60 62 64
76 61 53 49 48 47 56 66 75 79 82 86 84 81 80 82 82 73 64 56 52 47 44 41 39 41 43 47 51 56 61 65
62 48 45 45 43 45 51 60 69 74 80 81 79 77 78 79 76 69 59 55 48 45 41 41 36 36 37 38 44 55 63 67
46 47 41 44 48 51 57 62 62 71 76 79 79 77 78 77 75 68 58 53 48 42 40 35 33 30 31 29 35 48 61 74
59 53 50 48 53 59 66 61 64 70 74 75 75 78 82 79 71 61 55 53 48 42 35 29 24 23 24 24 30 39 55 67
46 54 52 55 60 65 69 67 70 70 74 72 76 84 83 76 65 56 55 49 43 36 28 19 17 15 17 29 30 40 47 59
55 55 64 76 70 68 71 73 70 71 73 75 87 89 82 72 62 61 53 48 42 33 23 15 12 11 21 33 41 48 52 54
68 69 72 72 71 75 80 78 73 74 78 86 92 88 79 69 64 60 52 43 37 28 19 12 7 11 16 24 33 40 40 49
72 69 69 73 74 80 87 85 85 84 89 99 98 90 81 74 66 56 45 41 34 24 17 8 3 7 11 16 24 30 37 48
89 88 86 85 86 82 90 91 90 90 101 107 100 92 84 76 67 60 52 43 34 25 17 7 3 4 9 16 22 30 36 49
85 85 88 87 93 91 91 89 88 92 106 107 99 92 81 75 64 59 52 48 37 27 18 11 3 2 7 15 19 25 36 48
78 80 86 89 90 85 82 90 98 105 108 103 94 85 78 69 65 57 48 42 35 30 23 15 9 5 5 13 21 32 40 46
Wind_Direction_850mb
234 233 234 235 239 235 232 231 230 232 234 238 241 240 240 238 236 235 236 237 241 247 253 261 268 273 278 284 290 292 293 296
248 241 244 248 245 238 234 234 233 235 237 238 240 241 241 239 236 234 235 235 238 246 254 261 265 270 275 281 288 291 293 294
258 257 251 249 245 244 242 239 239 239 236 237 238 241 241 239 235 231 232 234 238 246 254 259 265 269 276 284 288 291 292 294
253 250 258 257 252 253 247 247 246 240 236 237 238 239 241 239 234 230 230 234 238 245 254 261 266 272 280 285 289 291 293 295
260 261 262 262 259 255 252 254 249 241 239 238 239 240 240 238 234 229 230 233 239 245 253 259 266 273 280 287 291 293 296 299
272 272 270 263 259 257 254 254 249 242 242 240 237 238 239 236 232 227 228 233 239 245 253 259 266 274 282 289 292 295 297 300
275 272 268 268 265 260 256 253 248 244 242 236 235 236 235 232 228 225 228 233 241 248 253 259 267 276 288 292 293 296 300 303
272 278 286 275 266 264 261 253 245 242 236 234 233 232 232 230 223 222 226 233 240 247 254 259 270 282 288 291 294 297 302 307
282 285 276 266 258 254 249 245 241 236 233 231 230 229 227 225 220 220 224 231 239 247 252 261 273 283 288 295 296 301 306 313
278 280 275 265 259 248 240 237 235 233 231 230 228 225 220 213 213 218 224 229 237 244 251 262 273 280 291 293 298 306 316 319
273 268 265 263 254 242 238 233 230 229 226 226 225 223 217 211 210 215 220 230 233 240 252 263 273 284 287 297 308 314 318 321
270 266 263 264 253 247 238 234 233 230 226 223 220 216 211 208 210 213 217 226 231 240 248 259 271 281 295 305 309 316 320 311
284 267 266 266 259 253 245 239 232 230 227 221 214 206 204 207 208 210 216 222 227 232 241 253 273 295 303 310 314 319 311 316
288 276 277 271 261 255 250 242 234 231 224 217 207 201 201 204 206 211 220 222 225 230 232 246 269 293 315 327 327 323 319 319
282 282 289 285 264 256 249 241 235 231 222 208 201 196 196 199 202 212 216 219 223 225 235 244 273 310 329 341 337 331 328 333
278 278 278 272 265 257 250 241 233 226 218 205 199 196 193 198 206 212 211 221 222 223 219 236 279 339 346 339 334 328 337 330
283 281 280 278 266 256 248 241 229 218 209 202 196 192 193 194 196 200 206 207 210 204 210 216 304 337 351 343 340 343 345 345
278 278 273 268 262 253 245 235 226 215 206 198 193 194 192 193 194 197 194 193 195 191 189 180 268 1 359 357 3 353 356 360
281 282 276 268 256 248 237 226 219 212 205 195 196 194 193 193 194 198 199 188 181 180 175 162 194 96 26 12 4 0 10 12
286 279 272 263 253 246 237 224 211 203 196 196 193 192 193 193 193 191 188 184 176 171 164 164 175 149 49 1 358 8 12 11